Time,TemperatureF,DewpointF,PressureIn,WindDirection,WindDirectionDegrees,WindSpeedMPH,WindSpeedGustMPH,Humidity,HourlyPrecipIn,Conditions,Clouds,dailyrainin,SoftwareType,DateUTC
2013-11-19 00:06:00,65.0,56.0,30.05,East,83,0.0,2.0,72,0.00,,,0.00,weatherlink.com 1.10,2013-11-19 06:06:00,
2013-11-19 00:21:00,64.3,56.0,30.05,East,83,0.0,0.0,74,0.00,,,0.00,weatherlink.com 1.10,2013-11-19 06:21:00,
2013-11-19 00:36:00,64.1,55.0,30.05,East,91,1.0,2.0,71,0.00,,,0.00,weatherlink.com 1.10,2013-11-19 06:36:00,
2013-11-19 00:51:00,63.9,54.0,30.04,ENE,74,0.0,2.0,69,0.00,,,0.00,weatherlink.com 1.10,2013-11-19 06:51:00,
2013-11-19 01:06:00,63.2,53.0,30.04,ENE,74,0.0,0.0,69,0.00,,,0.00,weatherlink.com 1.10,2013-11-19 07:06:00,
2013-11-19 01:21:00,63.1,52.0,30.04,ENE,74,0.0,1.0,68,0.00,,,0.00,weatherlink.com 1.10,2013-11-19 07:21:00,
2013-11-19 01:36:00,62.8,52.0,30.04,ENE,62,0.0,1.0,69,0.00,,,0.00,weatherlink.com 1.10,2013-11-19 07:36:00,
2013-11-19 01:51:00,62.4,52.0,30.04,NE,40,0.0,1.0,68,0.00,,,0.00,weatherlink.com 1.10,2013-11-19 07:51:00,
2013-11-19 02:06:00,62.1,52.0,30.04,NE,39,0.0,1.0,69,0.00,,,0.00,weatherlink.com 1.10,2013-11-19 08:06:00,
2013-11-19 02:21:00,61.4,52.0,30.04,NE,39,0.0,0.0,71,0.00,,,0.00,weatherlink.com 1.10,2013-11-19 08:21:00,
2013-11-19 02:36:00,60.4,52.0,30.04,NE,39,0.0,0.0,74,0.00,,,0.00,weatherlink.com 1.10,2013-11-19 08:36:00,
2013-11-19 02:51:00,59.4,52.0,30.04,NE,39,0.0,0.0,76,0.00,,,0.00,weatherlink.com 1.10,2013-11-19 08:51:00,
2013-11-19 03:06:00,58.9,52.0,30.05,NE,39,0.0,0.0,78,0.00,,,0.00,weatherlink.com 1.10,2013-11-19 09:06:00,
2013-11-19 03:21:00,58.4,51.0,30.05,NE,39,0.0,0.0,77,0.00,,,0.00,weatherlink.com 1.10,2013-11-19 09:21:00,
2013-11-19 03:36:00,58.4,51.0,30.04,NE,52,0.0,1.0,76,0.00,,,0.00,weatherlink.com 1.10,2013-11-19 09:36:00,
2013-11-19 03:51:00,58.0,51.0,30.05,NE,53,0.0,1.0,77,0.00,,,0.00,weatherlink.com 1.10,2013-11-19 09:51:00,
2013-11-19 04:06:00,57.1,50.0,30.05,NE,52,0.0,0.0,77,0.00,,,0.00,weatherlink.com 1.10,2013-11-19 10:06:00,
2013-11-19 04:21:00,56.8,50.0,30.05,NE,53,0.0,0.0,78,0.00,,,0.00,weatherlink.com 1.10,2013-11-19 10:21:00,
2013-11-19 04:36:00,55.9,50.0,30.05,NE,53,0.0,0.0,79,0.00,,,0.00,weatherlink.com 1.10,2013-11-19 10:36:00,
2013-11-19 04:52:00,55.4,49.0,30.05,NE,53,0.0,0.0,80,0.00,,,0.00,weatherlink.com 1.10,2013-11-19 10:52:00,
2013-11-19 05:07:00,54.6,50.0,30.05,NE,53,0.0,0.0,83,0.00,,,0.00,weatherlink.com 1.10,2013-11-19 11:07:00,
2013-11-19 05:22:00,54.1,49.0,30.05,NE,53,0.0,0.0,82,0.00,,,0.00,weatherlink.com 1.10,2013-11-19 11:22:00,
2013-11-19 05:37:00,54.0,49.0,30.05,NE,52,0.0,0.0,84,0.00,,,0.00,weatherlink.com 1.10,2013-11-19 11:37:00,
2013-11-19 05:52:00,53.2,49.0,30.05,NE,52,0.0,0.0,84,0.00,,,0.00,weatherlink.com 1.10,2013-11-19 11:52:00,
2013-11-19 06:07:00,52.8,49.0,30.06,NE,52,0.0,0.0,86,0.00,,,0.00,weatherlink.com 1.10,2013-11-19 12:07:00,
2013-11-19 06:22:00,51.9,48.0,30.07,NE,52,0.0,0.0,85,0.00,,,0.00,weatherlink.com 1.10,2013-11-19 12:22:00,
2013-11-19 06:37:00,51.8,48.0,30.07,NE,53,0.0,0.0,86,0.00,,,0.00,weatherlink.com 1.10,2013-11-19 12:37:00,
2013-11-19 06:52:00,51.7,49.0,30.07,NE,52,0.0,0.0,89,0.00,,,0.00,weatherlink.com 1.10,2013-11-19 12:52:00,
2013-11-19 07:07:00,51.5,49.0,30.08,NE,52,0.0,0.0,90,0.00,,,0.00,weatherlink.com 1.10,2013-11-19 13:07:00,
2013-11-19 07:22:00,51.8,50.0,30.09,NE,52,0.0,0.0,92,0.00,,,0.00,weatherlink.com 1.10,2013-11-19 13:22:00,
2013-11-19 07:37:00,52.3,48.0,30.09,NE,52,0.0,0.0,86,0.00,,,0.00,weatherlink.com 1.10,2013-11-19 13:37:00,
2013-11-19 07:52:00,54.9,49.0,30.10,ENE,72,0.0,0.0,79,0.00,,,0.00,weatherlink.com 1.10,2013-11-19 13:52:00,
2013-11-19 08:07:00,56.6,48.0,30.10,NE,37,0.0,0.0,73,0.00,,,0.00,weatherlink.com 1.10,2013-11-19 14:07:00,
2013-11-19 08:22:00,57.7,47.0,30.11,NE,51,0.0,0.0,68,0.00,,,0.00,weatherlink.com 1.10,2013-11-19 14:22:00,
2013-11-19 08:37:00,58.3,46.0,30.11,NE,46,2.0,4.0,64,0.00,,,0.00,weatherlink.com 1.10,2013-11-19 14:37:00,
2013-11-19 08:52:00,58.1,46.0,30.11,ENE,65,3.0,3.0,64,0.00,,,0.00,weatherlink.com 1.10,2013-11-19 14:52:00,
2013-11-19 09:07:00,58.1,47.0,30.11,ENE,66,0.0,3.0,67,0.00,,,0.00,weatherlink.com 1.10,2013-11-19 15:07:00,
2013-11-19 09:22:00,58.5,46.0,30.12,NE,41,0.0,3.0,64,0.00,,,0.00,weatherlink.com 1.10,2013-11-19 15:22:00,
2013-11-19 09:37:00,59.2,47.0,30.12,ESE,111,1.0,3.0,64,0.00,,,0.00,weatherlink.com 1.10,2013-11-19 15:37:00,
2013-11-19 09:52:00,60.0,46.0,30.12,NE,56,1.0,4.0,61,0.00,,,0.00,weatherlink.com 1.10,2013-11-19 15:52:00,
2013-11-19 10:07:00,60.9,46.0,30.11,East,92,0.0,6.0,58,0.00,,,0.00,weatherlink.com 1.10,2013-11-19 16:07:00,
2013-11-19 10:22:00,61.9,46.0,30.11,ENE,61,0.0,7.0,56,0.00,,,0.00,weatherlink.com 1.10,2013-11-19 16:22:00,
2013-11-19 10:37:00,62.3,46.0,30.11,ESE,110,2.0,5.0,55,0.00,,,0.00,weatherlink.com 1.10,2013-11-19 16:37:00,
2013-11-19 10:52:00,63.1,47.0,30.10,East,82,1.0,5.0,56,0.00,,,0.00,weatherlink.com 1.10,2013-11-19 16:52:00,
2013-11-19 11:07:00,63.3,47.0,30.09,East,99,0.0,10.0,55,0.00,,,0.00,weatherlink.com 1.10,2013-11-19 17:07:00,
2013-11-19 11:22:00,64.0,47.0,30.09,SE,138,3.0,6.0,54,0.00,,,0.00,weatherlink.com 1.10,2013-11-19 17:22:00,
2013-11-19 11:37:00,64.7,47.0,30.08,NE,47,2.0,6.0,53,0.00,,,0.00,weatherlink.com 1.10,2013-11-19 17:37:00,
2013-11-19 11:52:00,64.9,48.0,30.08,ENE,58,1.0,5.0,55,0.00,,,0.00,weatherlink.com 1.10,2013-11-19 17:52:00,
2013-11-19 12:07:00,64.8,48.0,30.07,ENE,71,2.0,8.0,55,0.00,,,0.00,weatherlink.com 1.10,2013-11-19 18:07:00,
2013-11-19 12:22:00,65.2,50.0,30.06,ENE,69,0.0,5.0,58,0.00,,,0.00,weatherlink.com 1.10,2013-11-19 18:22:00,
2013-11-19 12:37:00,66.2,49.0,30.05,SE,146,1.0,9.0,55,0.00,,,0.00,weatherlink.com 1.10,2013-11-19 18:37:00,
2013-11-19 12:52:00,67.3,51.0,30.04,ENE,62,1.0,7.0,57,0.00,,,0.00,weatherlink.com 1.10,2013-11-19 18:52:00,
2013-11-19 13:08:00,67.4,51.0,30.03,ESE,103,3.0,8.0,55,0.00,,,0.00,weatherlink.com 1.10,2013-11-19 19:08:00,
2013-11-19 13:23:00,68.0,52.0,30.02,NE,53,2.0,10.0,57,0.00,,,0.00,weatherlink.com 1.10,2013-11-19 19:23:00,
2013-11-19 13:38:00,67.8,52.0,30.01,ENE,75,3.0,10.0,57,0.00,,,0.00,weatherlink.com 1.10,2013-11-19 19:38:00,
2013-11-19 13:53:00,68.3,52.0,30.00,ENE,75,3.0,11.0,57,0.00,,,0.00,weatherlink.com 1.10,2013-11-19 19:53:00,
2013-11-19 14:08:00,69.0,53.0,30.00,ENE,60,4.0,6.0,57,0.00,,,0.00,weatherlink.com 1.10,2013-11-19 20:08:00,
2013-11-19 14:23:00,69.1,53.0,29.99,ENE,76,3.0,9.0,56,0.00,,,0.00,weatherlink.com 1.10,2013-11-19 20:23:00,
2013-11-19 14:38:00,69.3,52.0,29.99,East,86,0.0,7.0,55,0.00,,,0.00,weatherlink.com 1.10,2013-11-19 20:38:00,
2013-11-19 14:53:00,69.5,53.0,29.98,NE,40,3.0,10.0,57,0.00,,,0.00,weatherlink.com 1.10,2013-11-19 20:53:00,
2013-11-19 15:08:00,69.4,53.0,29.98,SE,139,1.0,10.0,57,0.00,,,0.00,weatherlink.com 1.10,2013-11-19 21:08:00,
2013-11-19 15:23:00,69.1,53.0,29.98,ESE,107,1.0,9.0,57,0.00,,,0.00,weatherlink.com 1.10,2013-11-19 21:23:00,
2013-11-19 15:38:00,68.5,52.0,29.99,East,94,2.0,10.0,57,0.00,,,0.00,weatherlink.com 1.10,2013-11-19 21:38:00,
2013-11-19 15:53:00,68.7,53.0,29.99,ESE,118,2.0,8.0,57,0.00,,,0.00,weatherlink.com 1.10,2013-11-19 21:53:00,
2013-11-19 16:08:00,68.2,53.0,29.99,ESE,108,0.0,9.0,58,0.00,,,0.00,weatherlink.com 1.10,2013-11-19 22:08:00,
2013-11-19 16:23:00,67.1,53.0,29.99,East,99,0.0,8.0,61,0.00,,,0.00,weatherlink.com 1.10,2013-11-19 22:23:00,
2013-11-19 16:38:00,66.5,52.0,29.99,ESE,123,2.0,9.0,61,0.00,,,0.00,weatherlink.com 1.10,2013-11-19 22:38:00,
2013-11-19 16:53:00,66.0,52.0,29.99,ESE,117,5.0,8.0,62,0.00,,,0.00,weatherlink.com 1.10,2013-11-19 22:53:00,
2013-11-19 17:08:00,65.7,53.0,29.99,SSE,160,0.0,6.0,63,0.00,,,0.00,weatherlink.com 1.10,2013-11-19 23:08:00,
2013-11-19 17:23:00,65.4,53.0,29.99,ESE,113,1.0,3.0,64,0.00,,,0.00,weatherlink.com 1.10,2013-11-19 23:23:00,
2013-11-19 17:38:00,65.2,53.0,29.99,SE,136,0.0,3.0,65,0.00,,,0.00,weatherlink.com 1.10,2013-11-19 23:38:00,
2013-11-19 17:53:00,64.8,53.0,29.99,SE,126,0.0,0.0,65,0.00,,,0.00,weatherlink.com 1.10,2013-11-19 23:53:00,
2013-11-19 18:08:00,64.4,53.0,29.99,SE,126,0.0,0.0,67,0.00,,,0.00,weatherlink.com 1.10,2013-11-20 00:08:00,
2013-11-19 18:23:00,64.3,53.0,29.99,ESE,104,0.0,1.0,68,0.00,,,0.00,weatherlink.com 1.10,2013-11-20 00:23:00,
2013-11-19 18:38:00,64.0,54.0,29.99,ESE,104,0.0,1.0,70,0.00,,,0.00,weatherlink.com 1.10,2013-11-20 00:38:00,
2013-11-19 18:53:00,63.7,54.0,30.00,ESE,104,0.0,0.0,71,0.00,,,0.00,weatherlink.com 1.10,2013-11-20 00:53:00,
2013-11-19 19:08:00,63.2,55.0,30.00,ESE,104,0.0,0.0,74,0.00,,,0.00,weatherlink.com 1.10,2013-11-20 01:08:00,
2013-11-19 19:23:00,63.2,54.0,30.00,ESE,112,0.0,0.0,73,0.00,,,0.00,weatherlink.com 1.10,2013-11-20 01:23:00,
2013-11-19 19:38:00,63.6,54.0,30.00,ESE,110,0.0,1.0,72,0.00,,,0.00,weatherlink.com 1.10,2013-11-20 01:38:00,
2013-11-19 19:53:00,63.6,54.0,30.00,SE,142,0.0,2.0,71,0.00,,,0.00,weatherlink.com 1.10,2013-11-20 01:53:00,
2013-11-19 20:08:00,63.0,54.0,30.00,ESE,109,0.0,1.0,72,0.00,,,0.00,weatherlink.com 1.10,2013-11-20 02:08:00,
2013-11-19 20:23:00,62.0,54.0,30.00,East,86,0.0,2.0,74,0.00,,,0.00,weatherlink.com 1.10,2013-11-20 02:23:00,
2013-11-19 20:38:00,61.2,54.0,30.00,SE,124,0.0,1.0,76,0.00,,,0.00,weatherlink.com 1.10,2013-11-20 02:38:00,
2013-11-19 20:53:00,59.6,53.0,30.00,SE,124,0.0,0.0,79,0.00,,,0.00,weatherlink.com 1.10,2013-11-20 02:53:00,
2013-11-19 21:08:00,59.0,53.0,30.00,SE,124,0.0,0.0,81,0.00,,,0.00,weatherlink.com 1.10,2013-11-20 03:08:00,
2013-11-19 21:23:00,58.1,53.0,30.00,SE,124,0.0,0.0,84,0.00,,,0.00,weatherlink.com 1.10,2013-11-20 03:23:00,
2013-11-19 21:38:00,57.0,53.0,30.00,SE,124,0.0,0.0,87,0.00,,,0.00,weatherlink.com 1.10,2013-11-20 03:38:00,
2013-11-19 21:53:00,57.8,54.0,30.00,ESE,120,0.0,2.0,86,0.00,,,0.00,weatherlink.com 1.10,2013-11-20 03:53:00,
2013-11-19 22:08:00,58.5,54.0,30.00,ESE,110,0.0,6.0,86,0.00,,,0.00,weatherlink.com 1.10,2013-11-20 04:08:00,
2013-11-19 22:23:00,58.5,54.0,30.01,East,93,0.0,3.0,86,0.00,,,0.00,weatherlink.com 1.10,2013-11-20 04:23:00,
2013-11-19 22:38:00,57.6,54.0,30.01,ESE,113,0.0,1.0,87,0.00,,,0.00,weatherlink.com 1.10,2013-11-20 04:38:00,
2013-11-19 22:53:00,57.2,54.0,30.01,ESE,110,0.0,1.0,88,0.00,,,0.00,weatherlink.com 1.10,2013-11-20 04:53:00,
2013-11-19 23:08:00,57.2,54.0,30.01,ESE,120,2.0,3.0,88,0.00,,,0.00,weatherlink.com 1.10,2013-11-20 05:08:00,
2013-11-19 23:23:00,57.9,54.0,30.01,ESE,103,5.0,8.0,88,0.00,,,0.00,weatherlink.com 1.10,2013-11-20 05:23:00,
2013-11-19 23:38:00,58.4,55.0,30.01,East,101,4.0,9.0,87,0.00,,,0.00,weatherlink.com 1.10,2013-11-20 05:38:00,
2013-11-19 23:53:00,58.4,55.0,30.01,ESE,122,2.0,6.0,87,0.00,,,0.00,weatherlink.com 1.10,2013-11-20 05:53:00,